Find Qianfan Xingzuo 04-11

NORAD ID: 62795 Int'l Des: 2025-016 Owner: YUANX Country: CN Constellation: spacesail operational
LEOCIRCULARPOLAR

現在のビュー

3D地球を読み込み中...

Qianfan Xingzuo 04-11について

説明を読み込み中...

次回通過

Passes for default location (London). Set your location on the main map for personalized predictions.

高度履歴

Loading altitude history...

軌道要素

1 62795U 25016L 26159.48249808 .00000146 00000-0 20669-3 0 9996
2 62795 88.9723 84.5966 0013188 180.5328 179.5811 13.51012872 71240
Epoch: Jun 8, 2026 • Age: 12 hours

現在のステータス

高度 1063.4 km
速度 7.32 km/s
衛星直下点 -8.83°S, 19.72°E
打ち上げ日 Jan 23, 2025
運用期間 1.3 years
タイプ internet

技術仕様

分類 Payload
質量 267.00 kg
乾燥質量 267.00 kg
総質量 267.00 kg
長さ 0.30 m
直径 3.00 m
スパン 10.00 m
形状 Box+pan
製造者 SECM
バスタイプ Qianfan
フェーズステータス In Orbit
所有者/国 YUANX/CN

Most Searched